OBJECT C, 67221

Orbit data source: Space-Track

You're viewing an Uncataloged Satellite

Recently launched and/or uncataloged satellites may have evolving metadata. Metadata may include but not limited to: Owner, Maufacturer, Bus, Motor, and Mission.

OBJECT C, 67221 is a satellite owned by USAF STP (US) in LEO that was launched on Thu, 18 Dec 2025 UTC via an ELECTRON launch vehicle from the Wallops Island (WLPIS). Unknown objects in Earth's orbit typically refer to objects detected orbiting the Earth but have not yet been identified or cataloged. These objects could be anything from previously untracked satellites, spent rocket stages, debris from satellite collisions, or even natural meteoroids temporarily captured by Earth's gravity.

Loading next visibility...
Identifier
67221, 2025-305C
Orbit
LEO
Country
Flag of USUS
Related business
Manufacturer
AERO
Mission
Operational spacecraft
Bus & Motor
DISKSAT, EP
Mass
3 kg wet, 3 kg dry
Launch date (UTC)
2025-12-18 (4 days ago)
Launch vehicle
ELECTRON
Launch site
Wallops Island (WLPIS)
Object type
Unknown
Shape & HBR
Unknown
Radar Cross Section
RCS unknown

Expand to show TLE details & history
Last TLE update: 1 day ago

TLE from 1 day ago
0 OBJECT C
1 67221U 25305C   25354.31471422  .00001256  00000-0  10191-3 0  9995
2 67221  45.0067 310.4143 0004388 282.7791  77.2594 15.05653670   313
Epoch: 2025-12-20T07:33Z
TLE epoch observation values (Epoch: 2025-12-20T07:33:11.308Z)
Latitude
0.00003°
Longitude
107.97393°
Altitude
548.83 km
Speed
7.59 km/s
True Right ascension
20h 41m 39s
True Declination
0° 00' 00"
Sunlit
Object was in daylight at epoch
Visualization orbit readout
Latitude
Unknown
Longitude
Unknown
Altitude
Unknown
Speed
Unknown
Apparent Right ascension
Unknown
Apparent Declination
Unknown
Sunlit
N/A
Visualization observer readout
Local Sidereal Time
12:17:15
Azimuth
Unknown
Elevation
Unknown
Doppler factor
Unknown
Orbital elements
Apogee altitude
554.133 km
Perigee altitude
548.052 km
Semi-major axis
6,929.23 km
Eccentricity
0.00044
Inclination
45.0067°
RAAN
310.4143°
Arg. of periapsis
282.7791°
True anomaly
77.30845°
Mean anomaly
77.2594°
Eccentric anomaly
77.28392°
Mean motion
3.76284 °/min
Orbital period
95.67 mins
BSTAR
0.00010191
Loading maneuver chart data...
Computing Atmospheric mass density...
Loading historical data...
Loading historical data...
Loading historical data...
Loading historical data...
Loading historical data...
Loading historical data...
Loading historical data...
Other satellites on launch #305 in the year 2025 (2025-12-18 UTC)

Documentation

Showing up to 5 results
|